Location: Newark
(15.4608°S, 41.1635°W)
Time: 00:49:34
(UTC+00:00)

Courier 1B - All Passes

Search period start: 31 July 2021 00:00
Search period end: 10 August 2021 00:00
Orbit: 962 x 1209 km, 28.3° (Epoch: 30 July)

Date Brightness Start Highest point End Pass type
(mag) Time Alt. Az. Time Alt. Az. Time Alt. Az.
31 Jul - 05:55:48 10° NNW 06:00:40 21° NNE 06:05:27 10° E visible
31 Jul - 07:48:02 10° WNW 07:54:32 77° NNE 08:01:03 10° ESE visible
31 Jul - 09:42:45 10° W 09:48:48 41° SSW 09:55:01 10° SE daylight
31 Jul - 11:38:21 10° WSW 11:43:50 27° S 11:49:31 10° SE daylight
31 Jul - 13:32:56 10° SW 13:39:05 34° SSE 13:45:34 10° ESE daylight
31 Jul - 15:26:41 10° WSW 15:33:48 74° SSE 15:41:23 10° ENE daylight
31 Jul - 17:21:18 10° W 17:28:05 39° NNW 17:35:11 10° NE daylight
31 Jul - 19:21:07 10° NW 19:22:31 11° NNW 19:23:55 10° NNW daylight
01 Aug - 05:03:17 10° N 05:06:53 15° NNE 05:10:25 10° ENE visible
01 Aug - 06:54:23 10° NW 07:00:49 56° NNE 07:07:09 10° ESE visible
01 Aug - 08:48:38 10° W 08:54:55 50° SSW 09:01:16 10° SE daylight
01 Aug - 10:44:15 10° WSW 10:49:44 28° S 10:55:24 10° SE daylight
01 Aug - 12:39:13 10° SW 12:44:59 30° S 12:51:02 10° ESE daylight
01 Aug - 14:33:01 10° WSW 14:39:51 58° SSE 14:47:07 10° E daylight
01 Aug - 16:27:11 10° WSW 16:34:09 52° NNW 16:41:33 10° NE daylight
01 Aug - 18:24:15 10° WNW 18:28:28 16° NNW 18:32:46 10° N daylight
02 Aug - 06:00:54 10° NW 06:07:07 40° NNE 06:13:08 10° E visible
02 Aug - 07:54:35 10° WNW 08:01:05 65° SSW 08:07:33 10° ESE visible
02 Aug - 09:50:04 10° WSW 09:55:42 30° S 10:01:26 10° SE daylight
02 Aug - 11:45:24 10° SW 11:50:54 27° S 11:56:36 10° ESE daylight
02 Aug - 13:39:23 10° SW 13:45:53 46° SSE 13:52:45 10° E daylight
02 Aug - 15:33:15 10° WSW 15:40:16 70° NNW 15:47:44 10° NE daylight
02 Aug - 17:29:04 10° WNW 17:34:29 22° NNW 17:40:05 10° NNE daylight
03 Aug - 05:07:36 10° NNW 05:13:22 29° NNE 05:18:57 10° E visible
03 Aug - 07:00:38 10° WNW 07:07:18 85° SSW 07:13:49 10° ESE visible
03 Aug - 08:55:51 10° WSW 09:01:43 35° SSW 09:07:37 10° SE daylight
03 Aug - 10:51:28 10° SW 10:56:48 26° S 11:02:17 10° SE daylight
03 Aug - 12:45:46 10° SW 12:51:54 38° SSE 12:58:20 10° E daylight
03 Aug - 14:39:28 10° WSW 14:46:23 90° SSE 14:53:46 10° ENE daylight
03 Aug - 16:34:28 10° W 16:40:34 30° NNW 16:46:57 10° NNE daylight
04 Aug - 04:14:32 10° NNW 04:19:35 21° NNE 04:24:26 10° ENE night (unlit)
04 Aug - 06:06:48 10° WNW 06:13:34 73° NNE 06:20:04 10° ESE visible
04 Aug - 08:01:37 10° W 08:07:47 42° SSW 08:13:54 10° SE visible
04 Aug - 09:57:24 10° WSW 10:02:44 26° S 10:08:08 10° SE daylight
04 Aug - 11:52:06 10° SW 11:57:53 32° SSE 12:03:53 10° ESE daylight
04 Aug - 13:45:48 10° WSW 13:52:31 70° SSE 13:59:39 10° ENE daylight
04 Aug - 15:40:13 10° W 15:46:41 40° NNW 15:53:31 10° NE daylight
04 Aug - 17:39:24 10° NW 17:41:02 11° NNW 17:42:40 10° NNW daylight
05 Aug - 03:21:56 10° N 03:25:42 15° NNE 03:29:23 10° ENE night (unlit)
05 Aug - 05:13:05 10° NW 05:19:48 54° NNE 05:26:13 10° ESE visible
05 Aug - 07:07:24 10° W 07:13:55 53° SSW 07:20:15 10° SE visible
05 Aug - 09:03:12 10° WSW 09:08:40 28° S 09:14:09 10° SE daylight
05 Aug - 10:58:20 10° SW 11:03:51 28° S 11:09:29 10° ESE daylight
05 Aug - 12:52:10 10° SW 12:58:38 54° SSE 13:05:27 10° E daylight
05 Aug - 14:46:12 10° WSW 14:52:50 54° NNW 14:59:54 10° NE daylight
05 Aug - 16:42:58 10° WNW 16:47:02 16° NNW 16:51:13 10° N daylight
06 Aug - 02:31:32 10° NNE 02:31:45 10° NNE 02:32:00 10° NNE night (unlit)
06 Aug - 04:19:31 10° NW 04:26:01 39° NNE 04:32:12 10° E night (unlit)
06 Aug - 06:13:16 10° WNW 06:20:05 69° SSW 06:26:37 10° ESE visible
06 Aug - 08:08:54 10° WSW 08:14:40 31° SSW 08:20:20 10° SE visible
06 Aug - 10:04:28 10° SW 10:09:48 26° S 10:15:10 10° ESE daylight
06 Aug - 11:58:33 10° SW 12:04:44 43° SSE 12:11:09 10° E daylight
06 Aug - 13:52:20 10° WSW 13:59:01 73° NNW 14:06:06 10° ENE daylight
06 Aug - 15:47:57 10° WNW 15:53:07 22° NNW 15:58:30 10° NNE daylight
07 Aug - 03:26:08 10° NNW 03:32:13 29° NNE 03:37:59 10° E night (unlit)
07 Aug - 05:19:14 10° WNW 05:26:16 89° SSW 05:32:56 10° ESE visible
07 Aug - 07:14:33 10° W 07:20:40 36° SSW 07:26:38 10° SE visible
07 Aug - 09:10:25 10° SW 09:15:44 25° S 09:21:01 10° SE daylight
07 Aug - 11:04:54 10° SW 11:10:48 35° SSE 11:16:49 10° E daylight
07 Aug - 12:58:36 10° WSW 13:05:13 86° SSE 13:12:10 10° ENE daylight
07 Aug - 14:53:27 10° W 14:59:15 30° NNW 15:05:22 10° NNE daylight
08 Aug - 02:33:02 10° NNW 02:38:20 21° NNE 02:43:26 10° ENE night (unlit)
08 Aug - 04:25:19 10° NW 04:32:27 70° NNE 04:39:10 10° ESE night (unlit)
08 Aug - 06:20:13 10° W 06:26:44 45° SSW 06:33:00 10° SE visible
08 Aug - 08:16:13 10° WSW 08:21:39 26° S 08:27:01 10° SE visible
08 Aug - 10:11:10 10° SW 10:16:49 30° S 10:22:30 10° ESE daylight
08 Aug - 12:04:56 10° WSW 12:11:25 66° SSE 12:18:08 10° ENE daylight
08 Aug - 13:59:16 10° W 14:05:27 41° NNW 14:11:58 10° NE daylight
08 Aug - 15:58:17 10° NW 15:59:40 11° NNW 16:01:04 10° NNW daylight
09 Aug - 01:40:24 10° N 01:44:24 15° NNE 01:48:17 10° ENE night (unlit)
09 Aug - 03:31:32 10° NW 03:38:38 52° NNE 03:45:18 10° ESE night (unlit)
09 Aug - 05:25:55 10° W 05:32:50 57° SSW 05:39:24 10° ESE visible
09 Aug - 07:21:53 10° WSW 07:27:36 29° S 07:33:10 10° SE visible
09 Aug - 09:17:19 10° SW 09:22:47 27° S 09:28:13 10° ESE daylight
09 Aug - 11:11:17 10° SW 11:17:34 51° SSE 11:24:00 10° E daylight
09 Aug - 13:05:18 10° WSW 13:11:42 56° NNW 13:18:23 10° NE daylight
09 Aug - 15:01:54 10° WNW 15:05:45 16° NNW 15:09:42 10° N daylight
